This demonstration page uses our WeatherBlox Daily Observations layout. Learn more.

Left ArrowRight Arrow

39.29038, -76.61219

Hourly Observations for April 16, 2022

Temp ( °F °C ) Dew Point ( °F °C ) Humidity (%) Winds ( mph kmh ) Pressure ( in mb ) Visibility ( mi km ) Precip ( " mm )
12:54 am 00:54 Mostly Cloudy 59 15 34 1.1 39 39 SSW 8 13 30.05 1018 10 16 0.00 0.00
1:54 am 01:54 Cloudy 59 15 35 1.7 41 41 SSW 7 11 30.04 1017 10 16 0.00 0.00
2:54 am 02:54 Cloudy 61 16.1 35 1.7 38 38 SSW 8 13 30.01 1016 10 16 0.00 0.00
3:54 am 03:54 Cloudy 61 16.1 34 1.1 36 36 SW 8 13 30.01 1016 10 16 0.00 0.00
4:54 am 04:54 Cloudy 61 16.1 36 2.2 39 39 SW 10 17 30.00 1016 10 16 0.00 0.00
5:54 am 05:54 Cloudy with Light Rain 60 15.6 36 2.2 41 41 S 13 20 29.99 1016 10 16 0.00 0.00
6:54 am 06:54 Cloudy 60 15.6 37 2.8 42 42 SW 10 17 30.01 1016 10 16 0.00 0.00
7:54 am 07:54 Mostly Cloudy 60 15.6 38 3.3 44 44 SW 9 15 30.01 1016 10 16 0.00 0.00
8:54 am 08:54 Mostly Cloudy 62 16.7 38 3.3 41 41 SW 15 24 30.00 1016 10 16 0.00 0.00
9:54 am 09:54 Mostly Cloudy 65 18.3 39 3.9 39 39 SW 12 19 29.98 1015 10 16 0.00 0.00
10:54 am 10:54 Mostly Cloudy 69 20.6 39 3.9 33 33 SSW 10 17 29.96 1015 10 16 0.00 0.00
11:54 am 11:54 Partly Cloudy 72 22.2 40 4.4 31 31 VRB 7 11 29.91 1013 10 16 0.00 0.00
12:54 pm 12:54 Partly Cloudy 74 23.3 39 3.9 28 28 SW 8 13 29.89 1012 10 16 0.00 0.00
1:54 pm 13:54 Partly Cloudy 76 24.4 39 3.9 26 26 VRB 6 9 29.85 1011 10 16 0.00 0.00
2:54 pm 14:54 Mostly Cloudy 78 25.6 41 5 27 27 WSW 7 11 29.80 1009 10 16 0.00 0.00
3:54 pm 15:54 Mostly Cloudy 79 26.1 40 4.4 25 25 WSW 13 20 29.76 1008 10 16 0.00 0.00
4:54 pm 16:54 Partly Cloudy 79 26.1 40 4.4 25 25 WSW 14 22 29.75 1007 10 16 0.00 0.00
5:54 pm 17:54 Mostly Cloudy 76 24.4 42 5.6 30 30 SW 6 9 29.73 1007 10 16 0.00 0.00
6:54 pm 18:54 Mostly Cloudy 72 22.2 51 10.6 48 48 WNW 3 6 29.73 1007 10 16 0.01 0.25
7:54 pm 19:54 Mostly Cloudy 71 21.7 44 6.7 38 38 NNW 10 17 29.76 1008 10 16 0.00 0.00
8:54 pm 20:54 Mostly Cloudy 70 21.1 45 7.2 41 41 N 10 17 29.80 1009 10 16 0.00 0.00
9:54 pm 21:54 Mostly Cloudy 60 15.6 48 8.9 65 65 N 9 15 29.87 1012 10 16 0.00 0.00
10:54 pm 22:54 Mostly Cloudy 58 14.4 46 7.8 65 65 N 7 11 29.90 1013 10 16 0.00 0.00
10:55 pm 22:55 Mostly Cloudy 57 14 46 8 67 67 NNE 7 11 29.91 1013 10 16 0.00 0.00
11:54 pm 23:54 Mostly Cloudy with Light Rain 57 13.9 45 7.2 64 64 NNE 6 9 29.94 1014 10 16 0.00 0.00

Powered by AerisWeather